Location: Fort Worth, Tx
(32.7431°N, 97.3695°W)
Time: 13:23:12
(UTC-04:00)

Vanguard 1 Rocket - Pass Details

Date: 02 March 2024
Orbit: 652 x 4220 km, 34.3° (Epoch: 11 April)

Event Time Altitude Azimuth Distance (km) Brightness Sun altitude
Exits shadow 03:36:44 18° 168° (SSE) 6,633 11.5 -52.9°
Maximum altitude 03:48:49 25° 135° (SE) 6,127 11.5 -50.8°
Drops below altitude 10° 04:05:39 10° 90° (E) 6,698 12.2 -47.8°
Sets 04:11:34 0° 79° (ENE) 7,274 12.7 -46.7°
